Evans Head Observation History
Time Wind Speed Temp Pressure Rel. Hum Rain
20/10:00am ESE 11-17 kts 24.5°c 1024.4 hPa 72% 0.0mm
20/09:30am ESE 12-17 kts 24.6°c 1024.4 hPa 70% 0.0mm
20/09:00am ESE 12-16 kts 24.5°c 1024.5 hPa 70% 15.2mm
20/08:30am ESE 12-17 kts 24.1°c 1024.3 hPa 72% 15.2mm
20/08:00am ESE 12-16 kts 23.2°c 1024.2 hPa 74% 15.2mm
20/07:30am ESE 12-17 kts 22.5°c 1023.8 hPa 75% 15.2mm
20/07:00am ESE 11-16 kts 22.6°c 1023.6 hPa 76% 15.2mm
20/06:30am ESE 12-17 kts 22.0°c 1023.3 hPa 74% 15.2mm
20/06:00am ESE 13-17 kts 22.2°c 1023.0 hPa 78% 15.2mm
20/05:30am E 15-22 kts 21.4°c 1022.8 hPa 78% 15.2mm
20/05:00am SE 11-16 kts 20.8°c 1022.7 hPa 86% 15.2mm
20/04:30am ESE 12-17 kts 21.9°c 1022.5 hPa 82% 15.2mm
20/04:00am ESE 13-18 kts 21.7°c 1022.5 hPa 82% 15.2mm
20/03:30am ESE 12-18 kts 21.3°c 1022.5 hPa 85% 15.2mm
20/03:00am E 7-11 kts 21.1°c 1022.5 hPa 87% 15.2mm
20/02:30am E 13-18 kts 20.1°c 1022.6 hPa 85% 15.0mm
20/02:00am E 11-16 kts 22.0°c 1022.9 hPa 80% 15.0mm
20/01:30am E 13-18 kts 22.1°c 1023.1 hPa 79% 15.0mm
20/01:00am E 14-19 kts 21.8°c 1023.2 hPa 84% 15.0mm
20/12:30am ESE 12-17 kts 20.7°c 1023.3 hPa 90% 15.0mm
20/12:00am E 11-14 kts 22.5°c 1023.4 hPa 75% 13.8mm
Time Wind Speed Temp Pressure Rel. Hum Rain
19/11:30pm E 12-18 kts 22.7°c 1023.5 hPa 77% 13.8mm
19/11:00pm E 12-16 kts 22.6°c 1023.7 hPa 78% 13.8mm
19/10:30pm E 9-13 kts 22.5°c 1023.9 hPa 80% 13.8mm
19/10:00pm ESE 11-15 kts 22.4°c 1024.0 hPa 81% 13.8mm
19/09:30pm E 10-15 kts 22.2°c 1024.2 hPa 81% 13.8mm
19/09:00pm E 11-15 kts 22.3°c 1024.2 hPa 83% 13.8mm
19/08:30pm E 12-17 kts 22.0°c 1024.2 hPa 82% 13.8mm
19/08:00pm E 11-16 kts 22.0°c 1023.9 hPa 85% 13.8mm
19/07:30pm E 13-17 kts 21.8°c 1023.8 hPa 87% 13.8mm
19/07:00pm E 14-18 kts 21.7°c 1023.6 hPa 87% 13.8mm
19/06:30pm E 17-23 kts 21.3°c 1023.3 hPa 87% 13.8mm
19/06:00pm ESE 13-20 kts 22.3°c 1023.1 hPa 83% 13.2mm
19/05:30pm E 10-14 kts 21.3°c 1023.0 hPa 87% 13.2mm
19/05:00pm ESE 9-13 kts 21.8°c 1022.7 hPa 87% 13.0mm
19/04:30pm ESE 16-25 kts 21.8°c 1022.6 hPa 80% 13.0mm
19/04:29pm ESE 15-25 kts 21.9°c 1022.6 hPa 80% 13.0mm
19/04:00pm ESE 13-19 kts 22.6°c 1022.5 hPa 84% 13.0mm
19/03:30pm ESE 14-19 kts 21.8°c 1022.4 hPa 88% 13.0mm
19/03:00pm ESE 11-16 kts 21.5°c 1022.5 hPa 91% 13.0mm
19/02:30pm ENE 6-13 kts 20.8°c 1022.6 hPa 94% 13.0mm
19/02:10pm E 17-27 kts 20.3°c 1022.8 hPa 85% 5.8mm
19/02:00pm ESE 11-16 kts 23.5°c 1022.8 hPa 76% 5.4mm
19/01:30pm ESE 14-21 kts 23.3°c 1022.8 hPa 73% 5.4mm
19/01:00pm ESE 12-18 kts 24.5°c 1022.8 hPa 77% 5.4mm
19/12:30pm SE 11-16 kts 24.1°c 1023.3 hPa 80% 5.4mm
19/12:00pm ESE 11-15 kts 23.9°c 1023.7 hPa 84% 5.4mm
19/11:30am SSE 11-17 kts 23.4°c 1024.5 hPa 76% 4.0mm
19/11:00am SSE 10-14 kts 25.1°c 1024.7 hPa 78% 4.0mm
19/10:30am SE 12-17 kts 24.1°c 1025.0 hPa 82% 4.0mm
19/10:00am ESE 9-13 kts 23.1°c 1025.2 hPa 89% 4.0mm
19/09:30am SE 14-22 kts 20.7°c 1025.3 hPa 82% 2.0mm
19/09:00am SE 12-17 kts 24.5°c 1025.3 hPa 74% 1.4mm
19/08:30am SE 9-14 kts 23.9°c 1025.2 hPa 75% 1.4mm
19/08:00am S 5-9 kts 20.8°c 1025.0 hPa 90% 1.4mm
19/07:30am SW 6-9 kts 19.7°c 1024.7 hPa 93% 1.4mm
19/07:00am SSW 6-9 kts 18.9°c 1024.3 hPa 94% 1.4mm
19/06:30am SW 8-10 kts 18.7°c 1024.0 hPa 93% 1.4mm
19/06:00am SW 7-10 kts 18.6°c 1023.7 hPa 94% 1.4mm
19/05:30am S 5-10 kts 19.2°c 1023.5 hPa 92% 1.4mm
19/05:00am SSW 6-11 kts 19.0°c 1023.3 hPa 92% 1.2mm
19/04:30am S 5-8 kts 18.7°c 1023.1 hPa 93% 1.2mm
19/04:00am SSW 6-9 kts 18.6°c 1022.8 hPa 93% 1.2mm
19/03:30am SW 5-7 kts 18.7°c 1022.9 hPa 92% 1.2mm
19/03:00am S 7-13 kts 19.4°c 1022.8 hPa 85% 1.2mm
19/02:30am WSW 5-6 kts 18.8°c 1023.0 hPa 89% 1.2mm
19/02:00am SSW 4-6 kts 19.6°c 1023.3 hPa 84% 1.2mm
19/01:30am SE 11-16 kts 21.7°c 1023.7 hPa 76% 1.2mm
19/01:00am SE 12-17 kts 21.8°c 1023.9 hPa 77% 1.2mm
19/12:30am SE 11-16 kts 21.8°c 1024.0 hPa 78% 1.2mm
19/12:00am SE 11-15 kts 21.6°c 1024.1 hPa 81% 1.2mm
Time Wind Speed Temp Pressure Rel. Hum Rain
18/11:30pm SE 10-14 kts 21.2°c 1024.2 hPa 85% 1.2mm
18/11:00pm SE 11-16 kts 20.9°c 1024.3 hPa 83% 1.2mm
18/10:30pm SE 8-10 kts 20.2°c 1024.3 hPa 88% 1.2mm
18/10:00pm SE 12-19 kts 21.4°c 1024.4 hPa 83% 1.0mm
18/09:30pm SSE 12-17 kts 20.5°c 1024.5 hPa 87% 1.0mm
18/09:00pm SE 10-13 kts 20.5°c 1024.3 hPa 89% 1.0mm
18/08:30pm SE 12-19 kts 21.6°c 1024.0 hPa 80% 0.6mm
18/08:00pm SE 11-15 kts 21.3°c 1023.9 hPa 81% 0.6mm
18/07:30pm SE 10-13 kts 20.7°c 1023.7 hPa 86% 0.6mm
18/07:00pm SE 10-14 kts 20.5°c 1023.4 hPa 86% 0.6mm
18/06:30pm SSE 11-15 kts 20.2°c 1023.1 hPa 86% 0.4mm
18/06:00pm SSE 9-14 kts 21.6°c 1022.7 hPa 85% 0.0mm
18/05:30pm SSE 12-16 kts 21.5°c 1022.4 hPa 84% 0.0mm
18/05:00pm S 12-17 kts 21.8°c 1022.0 hPa 82% 0.0mm
18/04:30pm SSE 12-17 kts 22.2°c 1021.8 hPa 79% 0.0mm
18/04:00pm SSE 12-17 kts 22.7°c 1021.7 hPa 78% 0.0mm
18/03:30pm SSE 14-19 kts 23.1°c 1021.8 hPa 75% 0.0mm
18/03:00pm SSE 13-21 kts 23.4°c 1022.0 hPa 77% 0.0mm
18/02:30pm SSE 15-21 kts 22.8°c 1022.0 hPa 77% 0.0mm
18/02:00pm SSE 17-23 kts 23.9°c 1021.9 hPa 74% 0.0mm
18/01:30pm SSE 14-20 kts 24.1°c 1021.9 hPa 74% 0.0mm
18/01:00pm SSE 16-22 kts 23.7°c 1022.1 hPa 74% 0.0mm
18/12:30pm SSE 15-21 kts 24.4°c 1022.3 hPa 72% 0.0mm
18/12:00pm S 14-20 kts 24.4°c 1022.7 hPa 72% 0.0mm
18/11:30am SSE 14-21 kts 24.0°c 1023.1 hPa 71% 0.0mm
18/11:00am S 12-17 kts 24.4°c 1023.3 hPa 75% 0.0mm
18/10:30am S 11-16 kts 23.6°c 1023.7 hPa 77% 0.0mm
18/10:00am S 12-17 kts 22.5°c 1023.8 hPa 75% 0.0mm
18/09:30am S 11-15 kts 22.2°c 1023.8 hPa 77% 0.0mm
18/09:00am S 10-14 kts 21.6°c 1023.8 hPa 78% 8.6mm
18/08:30am S 10-14 kts 20.7°c 1023.6 hPa 81% 8.6mm
18/08:00am SSW 7-11 kts 19.7°c 1023.4 hPa 87% 8.6mm
18/07:30am SSW 7-9 kts 18.4°c 1023.1 hPa 89% 8.6mm
18/07:00am SSW 9-13 kts 17.6°c 1022.8 hPa 91% 8.6mm
18/06:30am SSW 9-13 kts 16.9°c 1022.4 hPa 92% 8.6mm
18/06:00am SW 8-13 kts 17.0°c 1022.1 hPa 92% 8.6mm
18/05:30am SW 9-13 kts 16.8°c 1022.0 hPa 93% 8.6mm
18/05:00am SW 9-13 kts 17.0°c 1021.8 hPa 94% 8.6mm
18/04:30am SW 8-12 kts 16.8°c 1021.6 hPa 93% 8.6mm
18/04:00am SW 9-13 kts 17.1°c 1021.6 hPa 92% 8.4mm
18/03:30am SW 10-13 kts 17.2°c 1021.4 hPa 93% 8.4mm
18/03:00am SW 9-12 kts 17.2°c 1021.5 hPa 95% 8.4mm
18/02:30am SW 7-10 kts 17.2°c 1021.6 hPa 95% 8.4mm
18/02:00am SW 10-13 kts 17.3°c 1022.1 hPa 94% 8.4mm
18/01:30am SW 9-13 kts 17.4°c 1022.3 hPa 94% 8.4mm
18/01:00am SW 7-11 kts 17.5°c 1022.5 hPa 94% 8.4mm
18/12:30am SW 9-13 kts 17.8°c 1022.6 hPa 94% 8.2mm
18/12:00am SW 9-12 kts 17.9°c 1022.8 hPa 94% 8.0mm